Find Starlink 35424

NORAD ID: 66460 Int'l Des: 2025-262 Owner: SPXS Country: US Constellation: starlink operational
LEOCIRCULAR

現在のビュー

3D地球を読み込み中...

Starlink 35424について

説明を読み込み中...

次回通過

Passes for default location (London). Set your location on the main map for personalized predictions.

高度履歴

Loading altitude history...

軌道要素

1 66460U 25262E 26146.20943037 .00020412 00000-0 74899-3 0 9995
2 66460 42.9965 218.2440 0001156 267.4202 92.6517 15.27590192 30763
Epoch: May 26, 2026 • Age: 12 hours

現在のステータス

高度 484.0 km
速度 7.63 km/s
衛星直下点 29.46°N, 134.71°W
打ち上げ日 Nov 15, 2025
運用期間 0.5 years
タイプ internet

技術仕様

分類 Payload
質量 575.00 kg
乾燥質量 530.00 kg
総質量 575.00 kg
長さ 0.30 m
直径 4.10 m
スパン 29.00 m
形状 Box + pan
製造者 SPXS
バスタイプ Starlink V2MO
フェーズステータス In Orbit
所有者/国 SPXS/US

Most Searched